Flag for Brazil Weather past 2 weeks in Santarém, Para, Brazil

Now
88 °F

Passing clouds.


Feels Like: 96 °F
Forecast: 75 / 91 °F
Wind: 6 mph from East

Location: Santarem-Aeroporto

Current Time: Aug 30, 2014 at 1:28:22 PM

Latest Report: Aug 30, 2014 at 1:00 PM


Visibility: N/A

Pressure: 29.98 "Hg

Humidity: 62%

Dew point: 73 °F

Location of SantarémLocation

Historic Weather in Santarém — Graph

°F

Santarém temperature yesterday

Maximum temperature yesterday: 90 °F (at 2:00 PM)
Minimum temperature yesterday: 70 °F (at 6:00 AM)
Average temperature yesterday: 79 °F

Past Weeks' High & Low Weather Summary

 TemperatureHumidityPressure
High91 °F (Aug 19, 12:00 PM)100% (Aug 17, 12:00 AM)30.01 "Hg (Aug 17, 12:00 AM)
Low70 °F (Aug 29, 6:00 AM)44% (Aug 28, 3:00 PM)29.77 "Hg (Aug 24, 4:00 PM)
Average81 °F80%29.88 "Hg
* Reported Aug 15 12:00 Noon — Aug 30 12:00 Noon, Santarém, Weather by CustomWeather, © 2014

Note: Actual official high and low records may vary slightly from our data, if they occured in-between our weather recording intervals... More about our weather records

Advertising

Santarém weather history for previous 24 hours

 ConditionsComfort  
Time TempWeatherWind HumidityBarometerVisibility
12:00 PM
Aug 30
88 °FPartly sunny.7 mph62%29.98 "HgN/A
11:00 AM88 °FScattered clouds.12 mph66%29.98 "HgN/A
10:00 AM86 °FPassing clouds.14 mph70%29.98 "HgN/A
9:00 AM82 °FPartly sunny.17 mph74%29.98 "HgN/A
8:00 AM82 °FPassing clouds.13 mph79%29.95 "HgN/A
7:00 AM79 °FPassing clouds.9 mph84%29.95 "HgN/A
6:00 AM73 °FPassing clouds.No wind100%29.92 "HgN/A
5:00 AM73 °FClear.No wind94%29.89 "Hg10 mi
4:00 AM73 °FClear.No wind100%29.89 "Hg10 mi
3:00 AM73 °FPassing clouds.2 mph94%29.89 "HgN/A
2:00 AM75 °FClear.2 mph100%29.89 "Hg10 mi
1:00 AM73 °FClear.No wind94%29.92 "Hg10 mi
12:00 AM75 °FClear.1 mph89%29.92 "Hg10 mi
11:00 PM
Aug 29
77 °FClear.2 mph83%29.92 "Hg10 mi
10:00 PM75 °FClear.2 mph89%29.92 "Hg10 mi
9:00 PM77 °FClear.No wind89%29.86 "Hg10 mi
8:00 PM77 °FPassing clouds.No wind89%29.86 "HgN/A
7:00 PM81 °FPassing clouds.5 mph74%29.86 "HgN/A
6:00 PM88 °FPassing clouds.5 mph59%29.86 "HgN/A
4:00 PM90 °FScattered clouds.5 mph59%29.89 "HgN/A
3:00 PM90 °FScattered clouds.7 mph59%29.89 "HgN/A
2:00 PM90 °FScattered clouds.2 mph55%29.92 "HgN/A
1:00 PM88 °FPassing clouds.6 mph62%29.95 "HgN/A
Weather by CustomWeather, © 2014

See weather overviewHow to use our weather pages